TimeCDT,TemperatureF,Dew PointF,Humidity,Sea Level PressureIn,VisibilityMPH,Wind Direction,Wind SpeedMPH,Gust SpeedMPH,PrecipitationIn,Events,Conditions,WindDirDegrees,DateUTC
12:53 AM,62.1,61.0,96,30.10,7.0,ESE,4.6,-,N/A,,Clear,120,2013-08-19 05:53:00
1:53 AM,61.0,60.1,97,30.10,5.0,Calm,Calm,-,N/A,,Clear,0,2013-08-19 06:53:00
2:53 AM,61.0,61.0,100,30.10,6.0,Calm,Calm,-,N/A,,Clear,0,2013-08-19 07:53:00
3:48 AM,62.6,60.8,94,30.11,1.8,Calm,Calm,-,N/A,,Clear,0,2013-08-19 08:48:00
3:53 AM,61.0,61.0,100,30.09,2.0,Calm,Calm,-,N/A,,Clear,0,2013-08-19 08:53:00
4:01 AM,62.6,60.8,94,30.11,4.0,Calm,Calm,-,N/A,,Clear,0,2013-08-19 09:01:00
4:11 AM,59.0,59.0,100,30.11,1.8,Calm,Calm,-,N/A,,Clear,0,2013-08-19 09:11:00
4:21 AM,60.8,60.8,100,30.11,3.0,Calm,Calm,-,N/A,,Clear,0,2013-08-19 09:21:00
4:53 AM,60.1,60.1,100,30.08,5.0,Calm,Calm,-,N/A,,Clear,0,2013-08-19 09:53:00
5:50 AM,57.2,57.2,100,30.11,1.8,South,3.5,-,N/A,,Clear,180,2013-08-19 10:50:00
5:53 AM,57.9,57.9,100,30.09,1.5,South,3.5,-,N/A,,Clear,180,2013-08-19 10:53:00
6:06 AM,60.8,60.8,100,30.11,3.0,Calm,Calm,-,N/A,,Clear,0,2013-08-19 11:06:00
6:15 AM,60.8,60.8,100,30.12,1.5,Calm,Calm,-,N/A,,Clear,0,2013-08-19 11:15:00
6:20 AM,59.0,59.0,100,30.12,0.5,Calm,Calm,-,N/A,Fog,Fog,0,2013-08-19 11:20:00
6:29 AM,60.8,59.0,94,30.12,1.0,Calm,Calm,-,N/A,,Clear,0,2013-08-19 11:29:00
6:39 AM,59.0,59.0,100,30.13,2.5,Calm,Calm,-,N/A,,Clear,0,2013-08-19 11:39:00
6:48 AM,60.8,60.8,100,30.13,1.5,SSE,3.5,-,N/A,,Clear,150,2013-08-19 11:48:00
6:53 AM,61.0,61.0,100,30.11,2.5,Calm,Calm,-,N/A,,Clear,0,2013-08-19 11:53:00
7:53 AM,66.0,64.9,96,30.11,4.0,Calm,Calm,-,N/A,,Clear,0,2013-08-19 12:53:00
8:53 AM,71.1,66.9,87,30.12,9.0,Calm,Calm,-,N/A,,Clear,0,2013-08-19 13:53:00
9:53 AM,73.9,66.0,76,30.12,10.0,Calm,Calm,-,N/A,,Clear,0,2013-08-19 14:53:00
10:53 AM,75.9,64.9,69,30.12,10.0,South,4.6,-,N/A,,Scattered Clouds,170,2013-08-19 15:53:00
11:53 AM,79.0,66.0,64,30.11,10.0,SE,5.8,-,N/A,,Mostly Cloudy,140,2013-08-19 16:53:00
12:53 PM,79.0,66.0,64,30.10,10.0,SW,5.8,-,N/A,,Scattered Clouds,220,2013-08-19 17:53:00
1:53 PM,81.0,64.0,56,30.09,10.0,Variable,4.6,-,N/A,,Scattered Clouds,0,2013-08-19 18:53:00
2:53 PM,81.0,64.9,58,30.07,10.0,Calm,Calm,-,N/A,,Partly Cloudy,0,2013-08-19 19:53:00
3:53 PM,80.1,66.0,62,30.05,10.0,SE,4.6,-,N/A,,Overcast,140,2013-08-19 20:53:00
4:53 PM,82.9,64.0,53,30.03,10.0,Calm,Calm,-,N/A,,Scattered Clouds,0,2013-08-19 21:53:00
5:53 PM,81.0,64.9,58,30.03,10.0,SE,3.5,-,N/A,,Scattered Clouds,130,2013-08-19 22:53:00
6:53 PM,80.1,66.0,62,30.02,10.0,SE,3.5,-,N/A,,Mostly Cloudy,140,2013-08-19 23:53:00
7:53 PM,73.0,66.9,81,30.02,10.0,East,3.5,-,N/A,,Clear,100,2013-08-20 00:53:00
8:53 PM,70.0,64.9,84,30.03,10.0,East,4.6,-,N/A,,Clear,100,2013-08-20 01:53:00
9:53 PM,70.0,64.9,84,30.04,10.0,ESE,4.6,-,N/A,,Clear,120,2013-08-20 02:53:00
10:53 PM,70.0,64.9,84,30.05,10.0,SE,5.8,-,N/A,,Clear,140,2013-08-20 03:53:00
11:53 PM,70.0,66.0,87,30.05,10.0,SE,6.9,-,N/A,,Mostly Cloudy,140,2013-08-20 04:53:00